User: anonymous   Login
Location: ActonStarParty
(42.4766°N, 71.4538°W)
Time: 19:36:30
(UTC-04:00)
Language:

Cosmos 1300 - Orbit

View from above orbital plane
View from above orbital plane
View from above satellite
View from above satellite

Ground track
Ground track

The orbit data is extracted from the following two-line orbital elements,

1 12785U 81082A   14304.48466185  .00006056  00000-0  35012-3 0  8569
2 12785 082.5057 299.8447 0001232 046.8142 110.5972 15.12115203806514
Epoch (UTC): 31 October 2014 11:37:54
Eccentricity: 0.0001232
inclination: 82.5057°
perigee height: 529 km
apogee height: 530 km
right ascension of ascending node: 299.8447°
argument of perigee: 46.8142°
revolutions per day: 15.12115203
mean anomaly at epoch: 110.5972°
orbit number at epoch: 80651

The dashed part of the orbit path shows where the satellite is in the earth's shadow,  

DLR